Location: Castillon
(43.0896°N, 0.2156°E)
Time: 10:39:43
(UTC+00:00)

Cosmos 1544 Rocket - Pass Details

Date: 26 October 2021
Orbit: 603 x 631 km, 82.5° (Epoch: 08 December)

Event Time Altitude Azimuth Distance (km) Brightness Sun altitude
Rises 17:52:18 0° 188° (S) 2,909 7.2 -10.3°
Reaches altitude 10° 17:54:31 10° 189° (S) 2,007 6.4 -10.7°
Maximum altitude 17:58:59 84° 277° (W) 641 3.7 -11.5°
Drops below altitude 10° 18:03:28 10° 7° (N) 2,018 6.1 -12.3°
Sets 18:05:43 0° 8° (N) 2,927 6.9 -12.7°
